User: anonymous
Location: Unspecified
(0.0000°N, 0.0000°E)
Time: 11:17:37
(UTC+00:00)
Language:

ELEKTRO-L - Orbit

View from above orbital plane
View from above orbital plane
View from above satellite
View from above satellite

Ground track
Ground track

The orbit data is extracted from the following two-line orbital elements,

1 37344U 11001A   14244.10318410 -.00000109  00000-0  00000+0 0   730
2 37344 000.3785 080.3967 0001140 137.4865 235.6005 01.00270187 13280
Epoch (UTC): 01 September 2014 02:28:35
Eccentricity: 0.0001140
inclination: 0.3785°
perigee height: 35782 km
apogee height: 35791 km
right ascension of ascending node: 80.3967°
argument of perigee: 137.4865°
revolutions per day: 1.00270187
mean anomaly at epoch: 235.6005°
orbit number at epoch: 1328

The dashed part of the orbit path shows where the satellite is in the earth's shadow,  

DLR